Skip Page Navigation
NASA JPL Caltech
NASA Logo - Jet Propulsion Laboratory + View the NASA Portal
+ Center for Near-Earth Object Studies
JPL Home Earth Solar System Stars & Galaxies Technology
JPL Solar System Dynamics
BODIES ORBITS EPHEMERIDES TOOLS PHYSICAL DATA DISCOVERY FAQ SITE MAP
IMPORTANT: The SSD Announcement email list is now available. Major changes are coming in the near future, including possible hostname and/or URL changes. To be notified of such changes, subscribe to this email list.

Please visit this page for more details.


JPL Small-Body Database Browser
Search: [ help ]  
108905 (2001 PE9)
Classification: Main-belt Asteroid          SPK-ID: 2108905
Ephemeris | Orbit Diagram | Orbital Elements | Mission Design | Physical Parameters | Discovery Circumstances ]

[ hide orbit diagram ]

For accurate long-term ephemerides, please instead use our Horizons system.This orbit viewer was implemented using two-body methods, and hence should not be used for determining accurate long-term trajectories (over several years or decades) or planetary encounter circumstances.


[ revert to old Java-based viewer ]

Orbital Elements at Epoch 2459000.5 (2020-May-31.0) TDB
Reference: JPL 13 (heliocentric ecliptic J2000)
 Element Value Uncertainty (1-sigma)   Units 
e .1296852627807448 4.9138e-08  
a 2.808888209026584 2.0091e-08 au
q 2.444616803517236 1.3785e-07 au
i 12.86453770616803 6.6289e-06 deg
node 352.4087691164848 2.0865e-05 deg
peri 93.25061691615856 3.4478e-05 deg
M 271.6627049529099 2.6406e-05 deg
tp 2459422.431262773873
(2021-Jul-26.93126277)
0.00012738 TDB
period 1719.491801482299
4.71
1.8449e-05
5.051e-08
d
yr
n .2093641852142939 2.2463e-09 deg/d
Q 3.173159614535932 2.2697e-08 au
  Orbit Determination Parameters
   # obs. used (total)      743  
   data-arc span      6950 days (19.03 yr)  
   first obs. used      1999-04-11  
   last obs. used      2018-04-21  
   planetary ephem.      DE431  
   SB-pert. ephem.      SB431-N16  
   condition code      0  
   norm. resid. RMS      .51939  
   source      ORB  
   producer      Otto Matic  
   solution date      2018-May-07 05:18:20  

Additional Information
 Earth MOID = 1.50153 au 
 Jupiter MOID = 2.09503 au 
 T_jup = 3.273 
[ show covariance matrix ]

Ephemeris | Orbit Diagram | Orbital Elements | Mission Design | Physical Parameters | Discovery Circumstances ]

Physical Parameter Table
Parameter Symbol Value Units Sigma Reference Notes
absolute magnitude H 14.7   n/a MPO436524  

108905 (2001 PE9)          Discovered 2001-Aug-11 by NEAT at Haleakala
Reference: 20051019/Numbers.arcLast Updated: 2005-10-26
Ephemeris | Orbit Diagram | Orbital Elements | Mission Design | Physical Parameters | Discovery Circumstances ]
ABOUT SSD CREDITS/AWARDS PRIVACY/COPYRIGHT GLOSSARY LINKS
FirstGov 2020-Apr-05 07:55 UT
(server date/time)  
NASA Home Page
Site Manager:   Ryan S. Park
Webmaster  Alan B. Chamberlin